Regional Weather Roundup
Issued by NWS

Home | Current Version | Previous Version | Text Only | Print | Product List | Glossary On
Versions: 1 2 3 4 5 6 7 8 9 10 11 12 13 14 15 16 17 18 19 20 21 22 23 24 25 26 27 28
000
ASUS46 KSEW 071210
RWRWA

WASHINGTON REGIONAL WEATHER ROUNDUP
NATIONAL WEATHER SERVICE SEATTLE WA
400 AM PST WED DEC 07 2016

NOTE:"FAIR" INDICATES FEW OR NO CLOUDS BELOW 12,000 FEET WITH NO
SIGNIFICANT WEATHER AND/OR OBSTRUCTIONS TO VISIBILITY.

WAZ507-509-555>559-071300-
SEATTLE, TACOMA, EVERETT, AND VICINITY

CITY           SKY/WX    TMP DP  RH WIND       PRES   REMARKS
EVERETT        CLEAR     25  21  85 W3        30.40R
6HR MIN TEMP:  25; 6HR MAX TEMP:  31;

BOEING FIELD   PTCLDY    27  24  89 CALM      30.43R
6HR MIN TEMP:  27; 6HR MAX TEMP:  36;

RENTON         CLEAR     29  27  92 CALM      30.43R FOG
6HR MIN TEMP:  28; 6HR MAX TEMP:  33;

SEATAC AIRPORT PTCLDY    31  22  69 NE8       30.41R
6HR MIN TEMP:  30; 6HR MAX TEMP:  35;

JBLM-MCCHORD   MOCLDY    25  25  99 E3        30.40S
6HR MIN TEMP:  23; 6HR MAX TEMP:  28;

PUYALLUP         N/A     25  25 100 CALM      30.39S
BREMERTON      PTCLDY    30  21  69 N12       30.43S WCI  21
6HR MIN TEMP:  30; 6HR MAX TEMP:  34;

JBLM-FT LEWIS  PTCLDY    25  24  99 CALM      30.39S
6HR MIN TEMP:  24; 6HR MAX TEMP:  28;

TACOMA NARROWS CLOUDY    33  25  72 N10       30.40S WCI  25
6HR MIN TEMP:  32; 6HR MAX TEMP:  35;

$$

WAZ001-503-506-510-514-515-071300-
NORTH INTERIOR

CITY           SKY/WX    TMP DP  RH WIND       PRES   REMARKS
BELLINGHAM     CLEAR     25   4  40 N18G26    30.45R WCI  11
6HR MIN TEMP:  25; 6HR MAX TEMP:  27;

FRIDAY HARBOR  CLEAR     28  11  48 N12G17    30.47S WCI  18
6HR MIN TEMP:  27; 6HR MAX TEMP:  31;

EASTSOUND      FLURRIES  28   9  43 NE9G21    30.46S
PORT ANGELES   MOCLDY    27  20  75 CALM      30.45S
6HR MIN TEMP:  25; 6HR MAX TEMP:  32;

EDIZ HOOK      FAIR      32  19  59 N9        30.47S
6HR MIN TEMP:  32; 6HR MAX TEMP:  35;

PORT TOWNSEND    N/A     32  19  59 NW7       30.45S
NAS WHIDBEY    NOT AVBL
ARLINGTON      CLOUDY    23  16  74 CALM      30.45R VSB 1/4
6HR MIN TEMP:  19; 6HR MAX TEMP:  27;

BURLINGTON     NOT AVBL
$$

WAZ020-022-039-040-504-511-512-071300-
SOUTHWEST INTERIOR

CITY           SKY/WX    TMP DP  RH WIND       PRES   REMARKS
SHELTON        PTCLDY    31  23  72 NE5       30.38S
6HR MIN TEMP:  28; 6HR MAX TEMP:  32;

OLYMPIA        CLEAR     21  19  92 CALM      30.40S
6HR MIN TEMP:  21; 6HR MAX TEMP:  27;

CHEHALIS       FAIR      27  25  93 CALM      30.40S
KELSO          CLOUDY    30  29  96 CALM      30.40S
6HR MIN TEMP:  26; 6HR MAX TEMP:  30; 6HR PCP: TRACE;

VANCOUVER      MOCLDY    31  28  89 CALM      30.37F
6HR MIN TEMP:  26; 6HR MAX TEMP:  33;

SCAPPOOSE, OR  PTCLDY    29  27  92 N5        30.37F
6HR MIN TEMP:  26; 6HR MAX TEMP:  31;

PORTLAND, OR   MOCLDY    30  30 100 CALM      30.38F FOG
6HR MIN TEMP:  27; 6HR MAX TEMP:  33;

$$

WAZ021-516-517-071300-
WASHINGTON COAST

CITY           SKY/WX    TMP DP  RH WIND       PRES   REMARKS
FORKS          CLEAR     28  19  69 NE6       30.39S
6HR MIN TEMP:  28; 6HR MAX TEMP:  31;

HOQUIAM        CLEAR     31  27  85 NE5       30.38F
6HR MIN TEMP:  29; 6HR MAX TEMP:  34;

ASTORIA, OR    CLEAR     32  26  78 SE3       30.35S
6HR MIN TEMP:  30; 6HR MAX TEMP:  33;

$$

WAZ019-023-024-040-567>569-071300-
CASCADE MOUNTAINS AND COLUMBIA GORGE

CITY           SKY/WX    TMP DP  RH WIND       PRES   REMARKS
STAMPEDE PASS  CLOUDY    17  16  95 CALM      30.19S
6HR MIN TEMP:  17; 6HR MAX TEMP:  19;

TROUTDALE, OR  FOG       28  27  96 CALM      30.37F VSB 1/2
6HR MIN TEMP:  27; 6HR MAX TEMP:  34;

THE DALLES, OR CLOUDY    27  22  81 E5        30.43R
6HR MIN TEMP:  24; 6HR MAX TEMP:  32;

$$

WAZ026-027-041>044-520-521-071300-
EAST SLOPES

CITY           SKY/WX    TMP DP  RH WIND       PRES   REMARKS
OMAK           CLEAR     18   4  54 N14       30.45R WCI   4
6HR MIN TEMP:  18; 6HR MAX TEMP:  21;

WENATCHEE      CLOUDY    25  10  53 CALM      30.41R
6HR MIN TEMP:  24; 6HR MAX TEMP:  27;

ELLENSBURG     CLOUDY    26  15  63 S6        30.35R
6HR MIN TEMP:  26; 6HR MAX TEMP:  28;

YAKIMA         CLOUDY    27  20  75 W5        30.40R
6HR MIN TEMP:  26; 6HR MAX TEMP:  30;

$$

WAZ028-034-035-071300-
COLUMBIA BASIN

CITY           SKY/WX    TMP DP  RH WIND       PRES   REMARKS
EPHRATA        CLOUDY    23   8  52 N10       30.39R WCI  12
6HR MIN TEMP:  23; 6HR MAX TEMP:  25;

MOSES LAKE     CLOUDY    22  13  68 N9        30.40R
6HR MIN TEMP:  22; 6HR MAX TEMP:  24;

PASCO          CLOUDY    21  20  96 NW3       30.46R
6HR MIN TEMP:  16; 6HR MAX TEMP:  22;

HERMISTON, OR  PTCLDY    16  12  84 E3        30.42R
6HR MIN TEMP:  15; 6HR MAX TEMP:  19;

$$

WAZ036>038-071300-
NORTHEAST WASHINGTON

CITY           SKY/WX    TMP DP  RH WIND       PRES   REMARKS
SPOKANE GEIGER CLOUDY    22  14  71 SE6       30.30R
6HR MIN TEMP:  17; 6HR MAX TEMP:  22; 6HR PCP: TRACE;

SPOKANE FELTS  CLOUDY    24  15  68 CALM      30.34R
6HR MIN TEMP:  20; 6HR MAX TEMP:  24;

FAIRCHILD AFB  CLOUDY    21  16  80 E5        30.29R
6HR MIN TEMP:  17; 6HR MAX TEMP:  22;

COEURDALENE,ID CLOUDY    21  14  74 N7        30.32R
6HR MIN TEMP:  14; 6HR MAX TEMP:  21;

DEER PARK      CLOUDY    23  15  71 CALM      30.32R
6HR MIN TEMP:  19; 6HR MAX TEMP:  23;

$$

WAZ029>033-071300-
SOUTHEAST WASHINGTON

CITY           SKY/WX    TMP DP  RH WIND       PRES   REMARKS
PULLMAN        CLOUDY    17  14  88 CALM      30.32R
6HR MIN TEMP:  13; 6HR MAX TEMP:  19;

LEWISTON, ID   MOCLDY    21  15  78 E5        30.37R
6HR MIN TEMP:  20; 6HR MAX TEMP:  28;

WALLA WALLA    CLOUDY    23  17  78 E3        30.38R
6HR MIN TEMP:  15; 6HR MAX TEMP:  23;

PENDLETON, OR  CLEAR      7   3  84 E5        30.36R
6HR MIN TEMP:   7; 6HR MAX TEMP:  15;

$$




USA.gov is the U.S. government's official web portal to all federal, state and local government web resources and services.